Showing default

OTTER PUP, 56933

Orbit data source: Space-Track

OTTER PUP, 56933 is a payload satellite owned by Starfish Space (US) in SSO that was launched on Mon, 12 Jun 2023 UTC via an FALCON 9 launch vehicle from the Air Force Western Test Range (AFWTR). Payload-class satellites include a variety of spacecraft equipped with specific instruments for various scientific and technological missions. These include communications satellites like Starlink; space stations such as the ISS; scientific satellites like the Hubble; Earth observation satellites from companies like Planet Labs, Umbra, and HawkEye 360; GPS; miniature CubeSats for education and research; and military/defense satellites.

Loading next visibility...
Identifier
56933, 2023-084B
Orbit
SSO
Country
Flag of USUS
Related business
Manufacturer
Starfish Space
Mission
Partially operational Commercial Technology
Bus & Motor
OTTER, EP
Mass
~50 kg wet, 50 kg dry
Launch date (UTC)
2023-06-12 (2 years ago)
Launch vehicle
FALCON 9
Launch site
Air Force Western Test Range (AFWTR)
Object type
Payload
Rocket body
Debris
Shape & HBR
Box + 2 Pan, 0.5 m
Radar Cross Section
1.500 m², Medium (>0.1 m² and < 1m²)

Expand to show TLE details & history
Last TLE update: 7 hours ago

TLE from 7 hours ago
0 OTTER PUP
1 56933U 23084B   25260.90859783  .00032814  00000-0  54241-3 0  9994
2 56933  97.5777  38.9321 0004319 153.9128 206.2343 15.52159114126487
Epoch: 2025-09-17T21:48Z
TLE epoch observation values (Epoch: 2025-09-17T21:48:22.852Z)
Latitude
0.00003°
Longitude
74.75908°
Altitude
416.183 km
Speed
7.66 km/s
True Right ascension
02h 35m 43s
True Declination
0° 00' 00"
Sunlit
Object was in full shadow at epoch
Visualization orbit readout
Latitude
Unknown
Longitude
Unknown
Altitude
Unknown
Speed
Unknown
Apparent Right ascension
Unknown
Apparent Declination
Unknown
Sunlit
N/A
Visualization observer readout
Local Sidereal Time
21:38:54
Azimuth
Unknown
Elevation
Unknown
Doppler factor
Unknown
Orbital elements
Apogee altitude
410.285 km
Perigee altitude
404.423 km
Semi-major axis
6,785.491 km
Eccentricity
0.00043
Inclination
97.5777°
RAAN
38.9321°
Arg. of periapsis
153.9128°
True anomaly
206.21243°
Mean anomaly
206.2343°
Eccentric anomaly
206.22337°
Mean motion
3.88303 °/min
Orbital period
92.71 mins
BSTAR
0.00054241
Loading maneuver chart data...
Computing Atmospheric mass density...
Loading historical data...
Loading historical data...
Loading historical data...
Loading historical data...
Loading historical data...
Loading historical data...
Loading historical data...

Documentation

Showing up to 5 results
|